www.pogodaiklimat.ru

Погода и климат >> Архив погоды >> Беларусь >> Новогрудок


ПОГОДА в Новогрудке

  • Прогноз погоды в Новогрудке
  • Монитор погоды в Новогрудке

АРХИВ ПОГОДЫ в Новогрудке

Время (UTC), дата Ветер
(напр.,м/с)
 
Видим.   Явления Облачность Т
(С)
Тd
(С)
f
(%)
Тe
(С)
Тes
(С)
Комфортность P
(гПа)
Po
(гПа)
Тmin
(С)
Tmax
(С)
R
(мм)
R24
(мм)
S
(см)
06 17.07 СЗ 2 4000 м дымка 9/9 300 м
[St]
+11.4 +10.3 93 +10 +10 1007.0 973.7 +10.8 0.5
09 17.07 З 3 10 км 8/6 600 м
[Cu med, cong Ac trans]
+15.8 +10.3 70 +15 +15 1006.0 973.3
12 17.07 СЗ 3 10 км 8/6 600 м
[Cb cap Ac trans]
+17.7 +9.3 58 +18 +18 1006.0 973.5
15 17.07 С 3 10 км {ливн. осадки} 9/8 600 м
[Cb cap Ac trans Ci sp]
+15.0 +10.0 72 +14 +14 1007.0 974.1
18 17.07 ЮЗ 2 10 км {ливн. осадки} 8/4 600 м
[Cb cap Ac trans Ci fib]
+13.8 +10.8 82 +13 +13 1007.0 974.0 +18.6 0.9
21 17.07 ЮЗ 2 10 км 8/4 600 м
[Cb cap Ac trans]
+12.9 +10.6 86 +12 +12 1008.0 974.9
00 18.07 З 2 10 км 8/3 600 м
[Sc Ac trans]
+12.0 +10.2 89 +11 +11 1008.0 974.8
03 18.07 З 2 1000 м дымка 10/10 120 м
[St]
+11.7 +11.5 99 +10 +10 1008.0 974.8 +11.5
06 18.07 СЗ 3 4000 м дымка {туман} 10/10 300 м
[St]
+13.2 +12.6 96 +12 +12 1008.0 974.9 +11.5
09 18.07 З 4 10 км 9/9 240 м
[Sc]
+15.3 +12.6 84 +14 +14 1009.0 976.1
12 18.07 З 4
{11}
10 км 8/6 600 м
[Cu med, cong Ci fib]
+18.2 +11.7 66 +18 +18 1009.0 976.5
15 18.07 З 4
{10}
10 км 8/6 600 м
[Cu med, cong Ci fib]
+19.2 +11.5 61 +20 +20 1009.0 976.6
18 18.07 З 3
{11}
10 км 4/3 600 м
[Sc diur, vesp Ac trans]
+18.1 +11.9 67 +18 +18 1010.0 977.4 +20.1
21 18.07 З 3 10 км ясно +16.0 +11.6 75 +16 +16 1011.0 978.1
00 19.07 З 2 10 км ясно +13.8 +12.4 91 +13 +13 1012.0 978.9
03 19.07 З 2 4000 м дымка 1/0
[Ac trans]
+12.6 +11.7 94 +12 +12 1013.0 979.7 +12.5
06 19.07 ЮЗ 3 4000 м дымка {туман} 8/3 200 м
[St Ac trans]
+15.2 +12.9 86 +14 +14 1013.0 980.0 +12.2
09 19.07 З 3 10 км 8/8 600 м
[Cu med, cong]
+20.6 +11.8 57 +23 +23 комфорт 1013.0 980.6
12 19.07 З 3 10 км 8/8 600 м
[Cu med, cong]
+21.6 +9.1 45 +23 +23 комфорт 1013.0 980.7
15 19.07 З 3 10 км 6/6 600 м
[Cu med, cong]
+22.5 +9.6 44 +24 +26 комфорт 1013.0 980.8
18 19.07 З 1 10 км 4/4 600 м
[Sc diur, vesp]
+20.1 +10.2 53 +23 +23 комфорт 1013.0 980.5 +23.6
21 19.07 ЮЗ 1 10 км 3/3 600 м
[Sc]
+15.4 +10.4 72 +16 +16 1015.0 981.9
00 20.07 ЮЗ 2 10 км ясно +13.3 +9.5 78 +13 +13 1015.0 981.7
03 20.07 ЮЗ 1 10 км 4/3 600 м
[Sc Ci fib]
+11.9 +9.8 87 +12 +12 1016.0 982.5 +11.8
06 20.07 Ю 1 10 км 3/3
[Cb calv As trans]
+19.5 +11.8 61 +22 +27 комфорт 1016.0 983.4 +11.8
09 20.07 ЮЗ 2 10 км ясно +23.8 +10.5 43 +25 +39 комфорт 1016.0 983.8
12 20.07 З 3 10 км 8/8 700 м
[Cb cap]
+26.5 +11.8 40 +28 +28 жарко 1015.0 983.2
15 20.07 ЮЗ 4 10 км гроза без осадков 8/4 600 м
[Cb cap Ci sp]
+25.7 +11.4 41 +27 +27 жарко 1015.0 983.1
18 20.07 ЮЗ 3 10 км 3 балла +22.2 +12.2 53 +25 +25 комфорт 1016.0 983.7 +26.7
21 20.07 Ю 1 10 км ясно +16.6 +12.5 77 +17 +17 1017.0 984.0
00 21.07 Ю 2 4000 м дымка ясно +15.1 +12.4 84 +15 +15 1018.0 984.8
03 21.07 ЮЗ 1 4000 м дымка ясно +14.7 +12.0 84 +15 +15 1018.0 984.8 +13.0
06 21.07 ЮВ 1 10 км ясно +22.5 +14.1 59 +26 +33 жарко 1017.0 984.7 +13.0
09 21.07 Ю 3 10 км 3/3 600 м
[Cu hum]
+25.5 +12.3 44 +27 +36 жарко 1017.0 985.0
12 21.07 ЮВ 4 10 км 4/3 600 м
[Cu hum Ac trans]
+27.1 +12.3 40 +29 +35 жарко 1016.0 984.2
15 21.07 Ю 2 10 км 5/3 600 м
[Cu med, cong Ac trans]
+27.1 +12.3 40 +29 +30 жарко 1015.0 983.2
21 21.07 Ю 3
{10}
4000 м в посл. час ливневой дождь {гроза} 9/8 570 м
[Cb cap Ac trans]
+17.7 +16.2 91 +18 +18 1015.2 982.9
00 22.07 ЮЗ 2 4000 м дымка {гроза, ливн. осадки} 8/4 600 м
[Cb cap Ac trans]
+17.4 +16.2 93 +18 +18 1015.6 983.2
03 22.07 СЗ 2 4000 м слаб. ливневой дождь 10/10 540 м
[Cb cap]
+16.7 +15.9 95 +17 +17 1016.0 983.1 +16.5
06 22.07 З 3 4000 м дымка {ливн. осадки} 10/8 420 м
[Sc Ac As]
+16.7 +16.1 96 +16 +16 1016.0 983.1 +16.5 2
09 22.07 З 4 10 км 8/5 600 м
[Cb cap Ac trans Ci fib]
+17.7 +14.6 82 +17 +17 1017.0 984.2
12 22.07 З 4 10 км 8/8 600 м
[Cu med, cong]
+21.9 +13.8 60 +25 +25 комфорт 1016.0 983.7
15 22.07 СЗ 4
{10}
10 км 8/5 600 м
[Cb cap Ac trans Ci fib]
+21.8 +14.2 62 +25 +25 комфорт 1015.0 982.7
18 22.07 ЮЗ 2
{13}
10 км {гроза, ливн. осадки} 6/3 600 м
[Cb cap Ci fib]
+18.2 +15.1 82 +19 +19 1016.0 983.3 +23.2 6
21 22.07 З 4 10 км 3/0
[Ci fib]
+16.0 +11.6 75 +15 +15 1016.0 983.0
00 23.07 ЮЗ 3 10 км 3 балла +12.8 +10.5 86 +11 +11 1017.0 983.6
03 23.07 СЗ 3 4000 м дымка 6/3 600 м
[Cb cap Ac trans Ci fib]
+11.9 +10.5 91 +10 +10 1016.0 982.5 +11.5
06 23.07 З 3 4000 м дымка 10 баллов +13.2 +12.1 93 +12 +12 1016.0 982.7 +11.5
09 23.07 СЗ 5
{10}
10 км 10 баллов +17.1 +11.8 71 +16 +16 1015.0 982.1
12 23.07 СЗ 4 10 км 10 баллов +18.5 +12.5 68 +19 +19 1015.0 982.3
15 23.07 СЗ 3 10 км 10 баллов +20.0 +13.0 64 +22 +22 комфорт 1015.0 982.5
18 23.07 З 2 10 км 3 балла +19.1 +12.8 67 +21 +21 комфорт 1015.0 982.4 +21.0
21 23.07 СЗ 2 10 км ясно +16.5 +12.3 76 +17 +17 1016.0 983.0
00 24.07 СЗ 2 10 км ясно +15.2 +12.5 84 +15 +15 1015.0 981.9
03 24.07 З 2 4000 м дымка 10 баллов +14.6 +13.5 93 +14 +14 1015.0 981.9 +15.2

 

Местоположение метеостанции Новогрудок (Гродненская область, Беларусь): широта 53.60 долгота 25.85 высота над уровнем моря 280 м.

В архиве по умолчанию представлена погода в Новогрудке за последнюю неделю. Архивные данные за месяц целиком и за предыдущие месяцы, начиная с января 2011 года, Вы можете получить, выбрав интересующий диапазон дат из раскрывающегося списка и нажав кнопку "Ввод!".


*Определитесь, кто Вы:
робот инопланетянин человек

Внимание! Время в таблицах - всемирное. Для получения местного времени необходимо прибавить поправку, которая равна 3 ч.

Смотрите также архив погоды в соседних городах и на ближайших метеорологических станциях:

Погода в Лиде (Гродненская область, Беларусь) (48 км)
Погода в Барановичах (Брестская область, Беларусь) (53 км)
Погода в Столбцах (Минская область, Беларусь) (60 км)
Погода в Воложине (Минская область, Беларусь) (70 км)
Погода в Ошмянах (Гродненская область, Беларусь) (92 км)
Погода в Ганцевичах (Брестская область, Беларусь) (102 км)
Погода в Волковыске (Гродненская область, Беларусь) (104 км)
Погода в Ивацевичах (Брестская область, Беларусь) (105 км)
Погода в Варена (Литва) (112 км)
Погода в Гродно (Гродненская область, Беларусь) (119 км)

Пояснения к столбцам:

Ветер - указаны скорость ветра в м/с - средняя за 10 мин, порывы в срок и между сроками (в фигурных скобках) и направление, откуда дует ветер: С - северный, СВ - северо-восточный, В - восточный, ЮВ - юго-восточный, Ю - южный, ЮЗ - юго-западный, З - западный, СЗ - северо-западный.
Видимость - горизонтальная дальность видимости в метрах или километрах. При видимости от 1 до 10 км при отсутствии осадков обычно наблюдается дымка, при ухудшении видимости до 1 км и менее - туман. В сухую погоду видимость может ухудшаться дымом, пылью или мглою.
Явления - указаны атмосферные явления, наблюдавшиеся в срок или в последний час перед сроком; фигурными скобками обозначены явления, наблюдавшиеся между сроками (за 1-3 часа до срока); квадратными скобками обозначены град или гололедные отложения с указанием их диаметра в мм.
Облачность - указаны через наклонную черту общая и нижняя облачность в баллах и высота нижней границы облаков в метрах; квадратными скобками обозначены формы облаков: Ci - перистые, Cs - перисто-слоистые, Cc - перисто-кучевые, Ac - высококучевые, As - высокослоистые, Sc - слоисто-кучевые, Ns - слоисто-дождевые, Cu - кучевые, Cb - кучево-дождевые. Подробнее классификацию облаков см. в Атласе облаков (PDF).
T - Температура воздуха - температура, измеренная на высоте 2 м над землей.
Td - Температура точки росы - температура, при понижении до которой содержащийся в воздухе водяной пар достигнет насыщения.
f - Относительная влажность воздуха - влажноcть воздуха, измеренная на высоте 2 м над землей.
Te - Эффективная температура - температура, которую ощущает одетый по сезону человек в тени. Характеристика душности погоды. При расчете учитывается влияние влажности воздуха и скорости ветра на теплоощущения человека.
Tes - Эффективная температура на солнце - температура, которую ощущает человек, с поправкой на солнечный нагрев. Характеристика знойности погоды. Зависит от высоты солнца над горизонтом, облачности и скорости ветра. Ночью, в пасмурную погоду, а также при ветре 12 м/с и более поправка равна нулю.
P - Атмосферное давление - приведенное к уровню моря атмосферное давление.
Po - Атмосферное давление - измеренное на уровне метеостанции атмосферное давление.
Tmin - Минимальная температура - минимум температуры воздуха на высоте 2 м над землей.
Tmax - Максимальная температура - максимум температуры воздуха на высоте 2 м над землей.
R - Количество осадков - Количество выпавших осадков за период времени, мм. При наведении курсора мыши на число - период времени, за который выпало указанное количество осадков.
R24 - Количество осадков - Количество выпавших осадков за 24 часа, мм.
S - Снежный покров - Высота снежного покрова, см. При наведении курсора мыши на число - состояние снежного покрова и степень покрытия местности в баллах.